Home   Weather   Riverside   Past weeks

Flag for USA Past Weather in Riverside, California, USA — Yesterday and Last 2 Weeks

63 °F

Mostly cloudy.

Feels Like: 63 °F
Forecast: 57 / 77 °F
Wind: 3 mph from Southwest

Location: Riverside Municipal Airport

Current Time: Oct 24, 2016 at 8:06:56 PM

Latest Report: Oct 24, 2016 at 6:53 PM

Visibility: 10 mi

Pressure: 30.03 "Hg

Humidity: 84%

Dew Point: 58 °F

Location of RiversideLocation

Past Weather in Riverside — Graph


Riverside Temperature Yesterday

Maximum temperature yesterday: 75 °F (at 11:53 AM)
Minimum temperature yesterday: 61 °F (at 3:53 AM)
Average temperature yesterday: 66 °F

High & Low Weather Summary for the Past Weeks

High95 °F (Oct 21, 1:53 PM)96% (Oct 14, 7:53 AM)30.10 "Hg (Oct 14, 7:53 AM)
Low54 °F (Oct 13, 3:53 AM)5% (Oct 20, 2:53 PM)29.77 "Hg (Oct 21, 4:53 PM)
Average69 °F53%29.94 "Hg
* Reported Oct 9 6:53 PM — Oct 24 6:53 PM, Riverside, Weather by CustomWeather, © 2016

Note: Actual official high and low records may vary slightly from our data, if they occured in-between our weather recording intervals... More about our weather records


Riverside Weather History for the Previous 24 Hours

Scroll right to see more
Time TempWeatherWind HumidityBarometerVisibility
6:53 PM
Mon, Oct 24
63 °FMostly cloudy.3 mph84%30.03 "Hg10 mi
5:53 PM63 °FLight rain. Overcast.6 mph87%30.03 "Hg10 mi
4:53 PM64 °FMostly cloudy.5 mph84%30.02 "Hg10 mi
3:53 PM64 °FThundershowers. Overcast.3 mph84%30.03 "Hg3 mi
2:53 PM64 °FMostly cloudy.No wind81%30.01 "Hg10 mi
1:53 PM63 °FThunderstorms. Cloudy.7 mph87%30.02 "HgN/A
12:53 PM64 °FThundershowers. Overcast.8 mph84%30.04 "Hg9 mi
11:53 AM64 °FStrong thunderstorms. More clouds than sun.3 mph78%30.05 "Hg4 mi
10:53 AM67 °FOvercast.5 mph76%30.07 "Hg10 mi
9:53 AM66 °FMostly cloudy.3 mph78%30.09 "Hg10 mi
8:53 AM65 °FLight rain. Fog.5 mph91%30.09 "Hg4 mi
7:53 AM64 °FMostly cloudy.5 mph87%30.06 "Hg10 mi
6:53 AM64 °FThunderstorms. Fog.8 mph90%30.05 "Hg4 mi
5:53 AM64 °FFog.3 mph90%30.00 "Hg5 mi
4:53 AM63 °FFog.No wind93%29.98 "Hg4 mi
3:53 AM64 °FFog.No wind90%29.97 "Hg6 mi
2:53 AM64 °FLight rain. Fog.No wind90%29.97 "Hg6 mi
1:53 AM64 °FMostly cloudy.No wind90%29.98 "Hg7 mi
12:53 AM64 °FPassing clouds.3 mph90%29.98 "Hg7 mi
11:53 PM
Sun, Oct 23
64 °FLight rain. Fog.6 mph90%29.97 "Hg5 mi
10:53 PM64 °FLight rain. Fog.No wind90%30.00 "Hg6 mi
9:53 PM64 °FThunderstorms. Mostly cloudy.No wind90%29.99 "Hg7 mi
8:53 PM64 °FMostly cloudy.No wind87%29.98 "Hg10 mi
Weather by CustomWeather, © 2016

See weather overviewHow to use our weather pages